Regional Weather Roundup
Issued by NWS

Home | Current Version | Previous Version | Graphics & Text | Print | Product List | Glossary On
Versions: 1 2 3 4 5 6 7 8 9 10 11 12 13 14 15 16 17 18 19 20 21 22 23 24 25 26 27
000
ASUS45 KBOI 210010
RWRID

IDAHO REGIONAL WEATHER ROUNDUP
NATIONAL WEATHER SERVICE BOISE ID
600 PM MDT SUN MAY 20 2018

NOTE: "FAIR" INDICATES FEW OR NO CLOUDS BELOW 12000 FEET
WITH NO SIGNIFICANT WEATHER AND/OR OBSTRUCTIONS TO VISIBILITY

IDZ012-014-210100-
SOUTHWEST IDAHO


CITY           SKY/WX    TMP DP  RH WIND       PRES   REMARKS
BOISE          PTSUNNY   70  55  59 N5        29.83R
CALDWELL       CLOUDY    74  48  39 SW7       29.82S
MOUNTAIN HOME  PTSUNNY   71  50  46 NE8       29.82F
$$

IDZ016-017-210100-
SOUTHCENTRAL IDAHO


CITY           SKY/WX    TMP DP  RH WIND       PRES   REMARKS
BURLEY         CLOUDY    62  51  67 SW10      29.94R
JEROME         PTSUNNY   66  52  60 N8        29.90R
TWIN FALLS     PTSUNNY   65  52  62 E7        29.89S
$$

IDZ019>023-210100-
SOUTHEAST IDAHO


CITY           SKY/WX    TMP DP  RH WIND       PRES   REMARKS
IDAHO FALLS    CLOUDY    62  47  57 W7G20     29.91R THUNDER
POCATELLO      PTSUNNY   67  48  50 NW7       29.92R
REXBURG        CLOUDY    70  40  33 CALM      29.89S
$$

IDZ006-010-011-018-031-032-210100-
CENTRAL IDAHO MOUNTAINS


CITY           SKY/WX    TMP DP  RH WIND       PRES   REMARKS
MCCALL         MOSUNNY   65  43  44 NW7       29.90S
HAILEY         PTSUNNY   55  52  88 W8        29.97F
STANLEY          N/A     51  42  71 SE13G24   29.99R
SALMON         MOSUNNY   66  47  50 N6        29.89F
CHALLIS        PTSUNNY   68  41  37 VRB3      29.89F
$$

IDZ002-004-006-007-026-210100-
NORTHERN IDAHO


CITY           SKY/WX    TMP DP  RH WIND       PRES   REMARKS
LEWISTON       CLOUDY    72  57  59 W8        29.85F
LOWELL           N/A     64  58  80 CALM      29.84S
COEUR D`ALENE  MOSUNNY   75  46  35 N7        29.87S
MULLAN PASS    CLOUDY    53  42  66 N5        30.00S
$$




USA.gov is the U.S. government's official web portal to all federal, state and local government web resources and services.